QPF
0.02 0.02 0.01 0.01 0.01 0.01 0.01 0.01 0.01 0.00 0.01 0.00 0.01 0.01 0.01 0.01 0.00 0.00 0.01 0.01 0.00 0.00 0.00 0.00 0.00 0.00 0.00 0.00 0.01 0.01 0.01 0.02 0.01 0.01 0.02 0.02 0.02 0.02 0.02 0.03 0.04 0.04 0.05 0.05
0.02 0.03 0.02 0.01 0.01 0.01 0.01 0.01 0.01 0.01 0.01 0.00 0.01 0.00 0.00 0.00 0.00 0.00 0.00 0.01 0.00 0.00 0.00 0.00 0.00 0.01 0.00 0.00 0.01 0.01 0.01 0.01 0.02 0.02 0.02 0.02 0.02 0.02 0.02 0.02 0.03 0.04 0.04 0.05
0.01 0.02 0.03 0.02 0.01 0.01 0.01 0.01 0.01 0.01 0.01 0.01 0.01 0.01 0.00 0.00 0.00 0.00 0.00 0.00 0.00 0.00 0.00 0.00 0.01 0.01 0.01 0.01 0.00 0.01 0.01 0.01 0.01 0.01 0.01 0.02 0.03 0.02 0.01 0.02 0.03 0.03 0.04 0.04
0.01 0.02 0.03 0.02 0.00 0.00 0.01 0.01 0.00 0.00 0.01 0.00 0.00 0.00 0.00 0.00 0.00 0.00 0.00 0.00 0.00 0.00 0.00 0.01 0.01 0.01 0.01 0.01 0.01 0.01 0.01 0.01 0.01 0.01 0.01 0.02 0.02 0.01 0.01 0.02 0.02 0.03 0.04 0.03
0.02 0.02 0.02 0.01 0.00 0.00 0.00 0.00 0.00 0.00 0.00 0.00 0.01 0.00 0.00 0.00 0.00 0.00 0.00 0.00 0.00 0.00 0.00 0.01 0.01 0.01 0.01 0.01 0.01 0.01 0.01 0.01 0.01 0.01 0.01 0.02 0.02 0.02 0.02 0.02 0.02 0.03 0.03 0.03
0.02 0.02 0.01 0.01 0.00 0.00 0.00 0.00 0.00 0.00 0.00 0.00 0.00 0.00 0.00 0.00 0.00 0.00 0.00 0.00 0.00 0.00 0.00 0.00 0.00 0.01 0.01 0.02 0.02 0.01 0.01 0.02 0.01 0.01 0.01 0.02 0.02 0.02 0.02 0.02 0.02 0.02 0.02 0.03
0.02 0.02 0.01 0.01 0.01 0.00 0.00 0.00 0.00 0.00 0.00 0.00 0.00 0.00 0.00 0.00 0.00 0.00 0.00 0.00 0.00 0.00 0.00 0.00 0.01 0.01 0.02 0.03 0.02 0.02 0.02 0.02 0.02 0.01 0.01 0.02 0.03 0.03 0.03 0.02 0.03 0.02 0.02 0.02
0.02 0.03 0.03 0.01 0.02 0.01 0.00 0.00 0.00 0.00 0.00 0.00 0.00 0.00 0.00 0.00 0.00 0.00 0.00 0.00 0.00 0.00 0.00 0.01 0.01 0.02 0.03 0.02 0.02 0.02 0.02 0.02 0.01 0.01 0.02 0.02 0.03 0.04 0.04 0.03 0.03 0.03 0.03 0.03
0.03 0.02 0.02 0.01 0.02 0.02 0.00 0.00 0.00 0.00 0.00 0.00 0.00 0.00 0.00 0.00 0.00 0.00 0.00 0.00 0.00 0.00 0.00 0.01 0.02 0.03 0.03 0.03 0.03 0.02 0.02 0.02 0.01 0.01 0.02 0.02 0.03 0.04 0.05 0.04 0.04 0.04 0.03 0.04
0.03 0.02 0.01 0.01 0.01 0.01 0.01 0.00 0.00 0.00 0.00 0.00 0.00 0.00 0.00 0.00 0.00 0.00 0.00 0.00 0.00 0.00 0.00 0.01 0.02 0.03 0.04 0.04 0.03 0.03 0.02 0.02 0.01 0.01 0.02 0.03 0.03 0.04 0.04 0.04 0.04 0.03 0.03 0.04
0.04 0.03 0.02 0.02 0.01 0.01 0.01 0.01 0.01 0.00 0.00 0.00 0.00 0.00 0.00 0.00 0.00 0.00 0.00 0.00 0.00 0.00 0.01 0.01 0.01 0.03 0.05 0.06 0.06 0.05 0.03 0.02 0.01 0.01 0.02 0.03 0.04 0.03 0.03 0.03 0.04 0.03 0.03 0.03
0.06 0.04 0.03 0.03 0.02 0.01 0.01 0.01 0.00 0.00 0.00 0.00 0.00 0.00 0.00 0.00 0.00 0.00 0.00 0.00 0.00 0.01 0.01 0.01 0.02 0.03 0.06 0.08 0.08 0.07 0.05 0.04 0.03 0.02 0.02 0.02 0.03 0.04 0.03 0.03 0.03 0.04 0.03 0.03
0.06 0.05 0.03 0.03 0.02 0.01 0.01 0.01 0.00 0.00 0.00 0.00 0.00 0.00 0.00 0.00 0.00 0.00 0.00 0.00 0.00 0.01 0.01 0.01 0.02 0.03 0.04 0.07 0.08 0.08 0.07 0.06 0.06 0.05 0.04 0.03 0.03 0.03 0.03 0.03 0.03 0.03 0.03 0.03
0.04 0.04 0.03 0.03 0.02 0.02 0.01 0.01 0.00 0.00 0.00 0.00 0.00 0.00 0.00 0.00 0.00 0.00 0.00 0.00 0.00 0.00 0.01 0.01 0.02 0.03 0.04 0.06 0.07 0.08 0.09 0.09 0.08 0.06 0.05 0.04 0.03 0.03 0.04 0.05 0.05 0.04 0.03 0.03
0.03 0.03 0.03 0.03 0.02 0.02 0.02 0.01 0.00 0.00 0.00 0.00 0.00 0.01 0.01 0.00 0.00 0.00 0.00 0.00 0.00 0.00 0.00 0.01 0.03 0.03 0.04 0.05 0.07 0.07 0.07 0.07 0.08 0.06 0.05 0.05 0.04 0.03 0.03 0.03 0.04 0.04 0.04 0.03
0.01 0.01 0.01 0.02 0.02 0.02 0.02 0.01 0.00 0.00 0.00 0.00 0.00 0.00 0.00 0.00 0.01 0.01 0.01 0.01 0.01 0.00 0.00 0.01 0.02 0.03 0.04 0.05 0.06 0.07 0.06 0.08 0.10 0.06 0.03 0.03 0.04 0.05 0.04 0.03 0.03 0.03 0.02 0.02
0.01 0.01 0.01 0.01 0.01 0.01 0.01 0.00 0.00 0.00 0.00 0.00 0.00 0.01 0.01 0.01 0.02 0.01 0.01 0.01 0.02 0.01 0.01 0.01 0.02 0.03 0.05 0.07 0.07 0.07 0.07 0.07 0.07 0.05 0.04 0.03 0.03 0.04 0.05 0.04 0.03 0.03 0.02 0.02
0.01 0.00 0.01 0.01 0.00 0.00 0.00 0.00 0.00 0.00 0.00 0.00 0.01 0.01 0.01 0.01 0.02 0.01 0.01 0.01 0.01 0.01 0.01 0.01 0.02 0.04 0.05 0.08 0.10 0.09 0.07 0.05 0.04 0.04 0.03 0.03 0.03 0.04 0.04 0.04 0.03 0.02 0.02 0.02
0.00 0.00 0.00 0.00 0.00 0.00 0.00 0.00 0.00 0.00 0.00 0.01 0.01 0.01 0.01 0.01 0.02 0.02 0.01 0.01 0.01 0.02 0.02 0.02 0.04 0.05 0.06 0.08 0.09 0.10 0.09 0.06 0.05 0.04 0.04 0.04 0.04 0.04 0.04 0.04 0.03 0.02 0.02 0.02
0.00 0.00 0.00 0.00 0.00 0.00 0.01 0.01 0.01 0.00 0.01 0.01 0.01 0.00 0.01 0.02 0.01 0.01 0.01 0.01 0.01 0.03 0.03 0.03 0.05 0.07 0.09 0.07 0.06 0.06 0.07 0.06 0.04 0.04 0.04 0.05 0.04 0.05 0.04 0.04 0.03 0.02 0.01 0.01
0.00 0.00 0.00 0.00 0.00 0.00 0.01 0.02 0.01 0.01 0.01 0.01 0.01 0.01 0.01 0.02 0.01 0.01 0.01 0.01 0.01 0.02 0.03 0.05 0.06 0.08 0.09 0.07 0.05 0.04 0.03 0.04 0.04 0.03 0.03 0.04 0.05 0.05 0.04 0.04 0.03 0.03 0.02 0.02
0.00 0.00 0.00 0.00 0.00 0.00 0.01 0.03 0.02 0.02 0.01 0.01 0.01 0.01 0.02 0.02 0.01 0.01 0.01 0.01 0.01 0.02 0.03 0.06 0.07 0.08 0.08 0.06 0.03 0.03 0.02 0.02 0.03 0.03 0.03 0.03 0.03 0.03 0.03 0.03 0.03 0.03 0.02 0.02
0.00 0.00 0.00 0.00 0.00 0.00 0.00 0.01 0.02 0.02 0.02 0.01 0.01 0.01 0.02 0.03 0.02 0.02 0.01 0.01 0.02 0.03 0.03 0.05 0.06 0.06 0.06 0.04 0.03 0.03 0.02 0.02 0.02 0.02 0.02 0.02 0.02 0.02 0.01 0.01 0.02 0.02 0.02 0.01
0.01 0.01 0.01 0.01 0.01 0.01 0.01 0.01 0.02 0.02 0.03 0.02 0.01 0.01 0.02 0.03 0.03 0.02 0.02 0.03 0.03 0.04 0.04 0.04 0.05 0.04 0.04 0.03 0.03 0.04 0.03 0.03 0.02 0.02 0.02 0.02 0.02 0.01 0.01 0.01 0.01 0.01 0.02 0.02
0.02 0.01 0.01 0.01 0.02 0.02 0.02 0.02 0.02 0.02 0.03 0.02 0.02 0.01 0.01 0.03 0.05 0.06 0.05 0.05 0.06 0.05 0.04 0.04 0.04 0.04 0.04 0.04 0.04 0.04 0.04 0.04 0.03 0.02 0.02 0.02 0.01 0.01 0.02 0.01 0.02 0.02 0.02 0.02
0.02 0.02 0.02 0.03 0.03 0.03 0.03 0.03 0.03 0.03 0.03 0.03 0.03 0.02 0.02 0.02 0.04 0.06 0.07 0.07 0.06 0.06 0.04 0.03 0.03 0.04 0.06 0.06 0.05 0.05 0.05 0.04 0.03 0.03 0.02 0.02 0.02 0.02 0.01 0.02 0.02 0.02 0.02 0.02
0.01 0.01 0.01 0.01 0.02 0.02 0.02 0.02 0.02 0.02 0.02 0.03 0.03 0.02 0.02 0.03 0.04 0.05 0.05 0.06 0.06 0.04 0.03 0.04 0.05 0.06 0.07 0.06 0.06 0.06 0.06 0.05 0.04 0.03 0.03 0.03 0.02 0.02 0.02 0.02 0.03 0.02 0.02 0.02
MSLP
1013.82 1013.28 1012.75 1012.25 1011.79 1011.38 1010.99 1010.65 1010.34 1010.09 1009.91 1009.84 1009.90 1010.09 1010.42 1010.87 1011.39 1011.96 1012.52 1013.02 1013.45 1013.79 1014.04 1014.24 1014.41 1014.59 1014.79 1015.03 1015.31 1015.62 1015.94 1016.24 1016.51 1016.73 1016.91 1017.05 1017.17 1017.28 1017.41 1017.55 1017.72 1017.90 1018.10 1018.30
1013.59 1012.98 1012.33 1011.68 1011.06 1010.48 1009.96 1009.52 1009.17 1008.94 1008.84 1008.88 1009.08 1009.42 1009.87 1010.41 1011.00 1011.58 1012.13 1012.60 1012.99 1013.30 1013.55 1013.78 1014.00 1014.25 1014.55 1014.90 1015.29 1015.70 1016.11 1016.49 1016.83 1017.10 1017.33 1017.50 1017.66 1017.80 1017.95 1018.11 1018.29 1018.48 1018.68 1018.88
1013.32 1012.66 1011.95 1011.20 1010.46 1009.76 1009.13 1008.61 1008.22 1007.98 1007.92 1008.03 1008.31 1008.74 1009.28 1009.87 1010.49 1011.08 1011.62 1012.07 1012.44 1012.74 1013.00 1013.25 1013.53 1013.86 1014.24 1014.69 1015.17 1015.68 1016.17 1016.63 1017.03 1017.37 1017.65 1017.88 1018.08 1018.27 1018.46 1018.66 1018.87 1019.09 1019.31 1019.52
1013.01 1012.35 1011.61 1010.81 1010.00 1009.22 1008.50 1007.90 1007.45 1007.18 1007.11 1007.23 1007.54 1008.00 1008.57 1009.20 1009.83 1010.44 1010.98 1011.43 1011.80 1012.12 1012.41 1012.71 1013.04 1013.43 1013.89 1014.41 1014.97 1015.54 1016.10 1016.62 1017.09 1017.49 1017.83 1018.12 1018.39 1018.64 1018.90 1019.16 1019.42 1019.68 1019.93 1020.17
1012.67 1012.04 1011.30 1010.49 1009.64 1008.80 1008.01 1007.33 1006.80 1006.46 1006.32 1006.40 1006.69 1007.14 1007.71 1008.36 1009.01 1009.64 1010.21 1010.71 1011.12 1011.49 1011.83 1012.19 1012.57 1013.02 1013.53 1014.09 1014.69 1015.31 1015.91 1016.47 1016.99 1017.45 1017.85 1018.22 1018.56 1018.89 1019.22 1019.55 1019.87 1020.19 1020.49 1020.77
1012.30 1011.70 1010.99 1010.19 1009.32 1008.43 1007.58 1006.81 1006.18 1005.74 1005.51 1005.51 1005.74 1006.15 1006.71 1007.37 1008.06 1008.74 1009.38 1009.94 1010.44 1010.89 1011.30 1011.71 1012.15 1012.64 1013.17 1013.76 1014.38 1015.01 1015.63 1016.22 1016.77 1017.28 1017.75 1018.19 1018.60 1019.02 1019.42 1019.83 1020.22 1020.60 1020.95 1021.27
1011.90 1011.33 1010.65 1009.87 1008.99 1008.07 1007.16 1006.30 1005.57 1005.01 1004.67 1004.57 1004.72 1005.08 1005.63 1006.30 1007.04 1007.80 1008.53 1009.20 1009.81 1010.35 1010.85 1011.33 1011.81 1012.32 1012.86 1013.44 1014.05 1014.67 1015.30 1015.90 1016.49 1017.04 1017.57 1018.08 1018.57 1019.06 1019.54 1020.01 1020.46 1020.90 1021.29 1021.66
1011.47 1010.93 1010.29 1009.52 1008.65 1007.70 1006.73 1005.79 1004.95 1004.28 1003.82 1003.62 1003.69 1004.02 1004.55 1005.26 1006.06 1006.91 1007.75 1008.55 1009.27 1009.92 1010.50 1011.04 1011.55 1012.07 1012.60 1013.15 1013.74 1014.35 1014.96 1015.58 1016.20 1016.80 1017.39 1017.96 1018.52 1019.07 1019.61 1020.13 1020.63 1021.10 1021.53 1021.93
1011.05 1010.53 1009.91 1009.17 1008.30 1007.34 1006.32 1005.31 1004.38 1003.61 1003.06 1002.77 1002.78 1003.06 1003.60 1004.34 1005.22 1006.16 1007.12 1008.03 1008.86 1009.60 1010.25 1010.83 1011.35 1011.86 1012.37 1012.90 1013.45 1014.04 1014.66 1015.30 1015.95 1016.60 1017.25 1017.88 1018.51 1019.11 1019.69 1020.24 1020.76 1021.25 1021.70 1022.11
1010.65 1010.15 1009.56 1008.84 1007.99 1007.01 1005.96 1004.91 1003.92 1003.07 1002.45 1002.10 1002.06 1002.33 1002.88 1003.65 1004.59 1005.62 1006.67 1007.67 1008.58 1009.39 1010.08 1010.67 1011.20 1011.68 1012.16 1012.66 1013.19 1013.78 1014.40 1015.07 1015.77 1016.48 1017.19 1017.89 1018.56 1019.20 1019.80 1020.37 1020.89 1021.37 1021.82 1022.24
1010.27 1009.80 1009.24 1008.55 1007.72 1006.76 1005.71 1004.63 1003.61 1002.73 1002.07 1001.68 1001.62 1001.88 1002.44 1003.24 1004.23 1005.31 1006.42 1007.47 1008.43 1009.26 1009.96 1010.55 1011.05 1011.51 1011.95 1012.42 1012.95 1013.53 1014.19 1014.90 1015.66 1016.44 1017.21 1017.97 1018.68 1019.35 1019.97 1020.52 1021.03 1021.49 1021.92 1022.33
1009.93 1009.49 1008.96 1008.31 1007.51 1006.58 1005.56 1004.50 1003.48 1002.60 1001.93 1001.54 1001.47 1001.73 1002.30 1003.11 1004.11 1005.22 1006.34 1007.40 1008.36 1009.18 1009.86 1010.42 1010.89 1011.30 1011.72 1012.18 1012.70 1013.31 1014.01 1014.78 1015.60 1016.44 1017.28 1018.09 1018.85 1019.53 1020.15 1020.69 1021.18 1021.61 1022.02 1022.42
1009.59 1009.19 1008.71 1008.10 1007.36 1006.48 1005.50 1004.49 1003.51 1002.66 1002.01 1001.63 1001.57 1001.83 1002.39 1003.20 1004.19 1005.28 1006.38 1007.42 1008.34 1009.12 1009.76 1010.27 1010.70 1011.08 1011.48 1011.93 1012.46 1013.10 1013.84 1014.67 1015.55 1016.46 1017.36 1018.21 1018.99 1019.69 1020.31 1020.83 1021.29 1021.71 1022.10 1022.49
1009.23 1008.87 1008.45 1007.91 1007.23 1006.41 1005.51 1004.56 1003.64 1002.84 1002.24 1001.89 1001.84 1002.10 1002.65 1003.44 1004.39 1005.43 1006.48 1007.47 1008.34 1009.07 1009.65 1010.12 1010.51 1010.86 1011.24 1011.69 1012.24 1012.91 1013.69 1014.56 1015.49 1016.44 1017.38 1018.27 1019.07 1019.77 1020.38 1020.90 1021.35 1021.75 1022.13 1022.52
1008.83 1008.54 1008.17 1007.70 1007.10 1006.36 1005.54 1004.67 1003.84 1003.11 1002.55 1002.24 1002.21 1002.47 1002.99 1003.74 1004.63 1005.61 1006.60 1007.52 1008.32 1008.99 1009.54 1009.97 1010.33 1010.67 1011.05 1011.50 1012.07 1012.75 1013.55 1014.44 1015.39 1016.37 1017.32 1018.21 1019.02 1019.72 1020.33 1020.85 1021.30 1021.71 1022.10 1022.51
1008.43 1008.19 1007.89 1007.49 1006.96 1006.32 1005.59 1004.81 1004.06 1003.40 1002.90 1002.62 1002.60 1002.85 1003.34 1004.03 1004.87 1005.77 1006.69 1007.54 1008.29 1008.92 1009.43 1009.84 1010.20 1010.54 1010.92 1011.38 1011.95 1012.63 1013.43 1014.31 1015.26 1016.21 1017.15 1018.02 1018.82 1019.51 1020.12 1020.65 1021.12 1021.55 1021.98 1022.43
1008.05 1007.87 1007.64 1007.31 1006.86 1006.30 1005.66 1004.97 1004.29 1003.70 1003.26 1003.00 1002.99 1003.21 1003.65 1004.29 1005.05 1005.88 1006.73 1007.52 1008.23 1008.83 1009.34 1009.75 1010.12 1010.48 1010.87 1011.34 1011.91 1012.57 1013.34 1014.19 1015.08 1015.99 1016.87 1017.71 1018.47 1019.16 1019.77 1020.31 1020.81 1021.29 1021.77 1022.26
1007.76 1007.64 1007.46 1007.20 1006.82 1006.34 1005.77 1005.16 1004.56 1004.03 1003.61 1003.37 1003.35 1003.53 1003.92 1004.48 1005.16 1005.92 1006.70 1007.45 1008.13 1008.73 1009.24 1009.68 1010.08 1010.47 1010.89 1011.37 1011.92 1012.56 1013.28 1014.06 1014.88 1015.71 1016.52 1017.30 1018.02 1018.69 1019.30 1019.86 1020.40 1020.93 1021.47 1022.03
1007.62 1007.55 1007.42 1007.21 1006.89 1006.47 1005.97 1005.43 1004.87 1004.38 1003.98 1003.74 1003.67 1003.80 1004.12 1004.59 1005.19 1005.87 1006.59 1007.29 1007.96 1008.56 1009.10 1009.59 1010.04 1010.47 1010.92 1011.41 1011.96 1012.56 1013.22 1013.92 1014.65 1015.39 1016.12 1016.83 1017.50 1018.14 1018.75 1019.34 1019.92 1020.50 1021.10 1021.72
1007.66 1007.62 1007.53 1007.36 1007.09 1006.72 1006.26 1005.76 1005.24 1004.76 1004.37 1004.09 1003.98 1004.03 1004.25 1004.63 1005.13 1005.72 1006.37 1007.03 1007.68 1008.30 1008.87 1009.41 1009.92 1010.41 1010.90 1011.41 1011.95 1012.52 1013.13 1013.75 1014.40 1015.05 1015.70 1016.33 1016.95 1017.56 1018.17 1018.78 1019.40 1020.03 1020.68 1021.35
1007.86 1007.84 1007.77 1007.62 1007.38 1007.04 1006.62 1006.14 1005.64 1005.16 1004.74 1004.43 1004.24 1004.20 1004.32 1004.58 1004.97 1005.46 1006.03 1006.64 1007.26 1007.89 1008.50 1009.09 1009.66 1010.21 1010.75 1011.30 1011.85 1012.41 1012.97 1013.54 1014.12 1014.69 1015.27 1015.84 1016.41 1017.00 1017.60 1018.22 1018.86 1019.53 1020.21 1020.91
1008.15 1008.14 1008.07 1007.93 1007.70 1007.37 1006.97 1006.51 1006.01 1005.52 1005.08 1004.71 1004.44 1004.31 1004.31 1004.44 1004.71 1005.09 1005.56 1006.11 1006.70 1007.32 1007.95 1008.58 1009.21 1009.83 1010.43 1011.02 1011.60 1012.16 1012.71 1013.25 1013.78 1014.31 1014.83 1015.35 1015.89 1016.45 1017.04 1017.66 1018.31 1018.99 1019.69 1020.40
1008.44 1008.41 1008.33 1008.18 1007.95 1007.63 1007.24 1006.79 1006.30 1005.80 1005.32 1004.90 1004.55 1004.32 1004.20 1004.21 1004.35 1004.61 1004.98 1005.45 1005.99 1006.59 1007.23 1007.90 1008.57 1009.25 1009.91 1010.56 1011.18 1011.77 1012.33 1012.86 1013.38 1013.87 1014.36 1014.86 1015.37 1015.91 1016.48 1017.09 1017.73 1018.40 1019.09 1019.78
1008.60 1008.54 1008.43 1008.26 1008.03 1007.72 1007.34 1006.91 1006.43 1005.92 1005.43 1004.96 1004.56 1004.23 1004.01 1003.91 1003.92 1004.07 1004.33 1004.71 1005.19 1005.75 1006.39 1007.07 1007.78 1008.50 1009.22 1009.91 1010.58 1011.21 1011.80 1012.35 1012.87 1013.37 1013.85 1014.33 1014.83 1015.34 1015.89 1016.47 1017.09 1017.73 1018.39 1019.05
1008.53 1008.42 1008.29 1008.11 1007.87 1007.58 1007.22 1006.81 1006.35 1005.87 1005.37 1004.89 1004.44 1004.06 1003.75 1003.55 1003.46 1003.49 1003.65 1003.94 1004.35 1004.87 1005.47 1006.15 1006.87 1007.63 1008.38 1009.13 1009.84 1010.51 1011.14 1011.72 1012.26 1012.76 1013.25 1013.72 1014.21 1014.71 1015.23 1015.78 1016.36 1016.96 1017.58 1018.19
1008.15 1008.01 1007.85 1007.66 1007.43 1007.16 1006.84 1006.48 1006.07 1005.62 1005.15 1004.67 1004.22 1003.80 1003.44 1003.16 1002.99 1002.93 1003.00 1003.21 1003.54 1004.00 1004.57 1005.22 1005.94 1006.69 1007.47 1008.24 1008.99 1009.69 1010.35 1010.96 1011.52 1012.04 1012.53 1013.01 1013.48 1013.96 1014.46 1014.98 1015.52 1016.08 1016.65 1017.22
1007.46 1007.29 1007.12 1006.94 1006.74 1006.51 1006.24 1005.93 1005.58 1005.19 1004.77 1004.33 1003.89 1003.47 1003.09 1002.77 1002.54 1002.42 1002.41 1002.55 1002.81 1003.20 1003.71 1004.32 1005.01 1005.76 1006.53 1007.30 1008.05 1008.77 1009.45 1010.07 1010.65 1011.18 1011.68 1012.15 1012.62 1013.09 1013.57 1014.07 1014.58 1015.11 1015.64 1016.18
Thickness
5649 5657 5659 5660 5662 5666 5661 5655 5648 5653 5656 5663 5668 5671 5673 5674 5673 5673 5671 5671 5670 5668 5668 5667 5667 5667 5666 5666 5666 5666 5665 5664 5664 5665 5664 5664 5664 5664 5665 5665 5666 5666 5666 5667
5641 5652 5653 5652 5657 5659 5658 5658 5655 5655 5654 5666 5667 5666 5665 5665 5665 5663 5663 5663 5663 5663 5662 5661 5661 5661 5661 5661 5661 5661 5659 5659 5660 5660 5659 5659 5659 5659 5659 5659 5660 5660 5661 5662
5622 5637 5640 5635 5650 5652 5653 5656 5654 5647 5653 5660 5657 5658 5657 5657 5657 5655 5656 5656 5656 5655 5655 5655 5656 5656 5655 5656 5656 5655 5654 5654 5654 5654 5654 5655 5655 5654 5654 5654 5654 5654 5655 5656
5611 5621 5617 5637 5654 5655 5651 5651 5653 5652 5653 5655 5655 5655 5654 5653 5650 5649 5649 5649 5649 5648 5649 5650 5651 5651 5651 5651 5650 5649 5648 5649 5649 5648 5648 5649 5649 5649 5649 5649 5649 5649 5650 5651
5601 5605 5615 5635 5647 5648 5643 5641 5648 5647 5648 5649 5649 5646 5643 5647 5647 5645 5644 5643 5643 5643 5644 5643 5644 5644 5644 5643 5643 5642 5642 5643 5644 5644 5643 5643 5643 5644 5644 5644 5644 5645 5646 5647
5596 5599 5604 5626 5643 5648 5641 5629 5641 5642 5640 5640 5638 5625 5628 5638 5639 5639 5638 5638 5637 5637 5637 5636 5636 5637 5636 5636 5635 5636 5637 5638 5639 5639 5639 5639 5640 5640 5641 5640 5641 5641 5641 5643
5591 5591 5604 5626 5636 5638 5618 5622 5635 5636 5635 5633 5627 5626 5629 5632 5632 5632 5631 5630 5630 5629 5628 5628 5628 5629 5628 5628 5628 5631 5632 5633 5633 5633 5633 5635 5635 5635 5636 5636 5635 5636 5636 5637
5585 5583 5598 5625 5627 5621 5619 5626 5629 5629 5629 5627 5626 5626 5625 5624 5624 5624 5623 5622 5622 5620 5620 5620 5621 5620 5619 5620 5623 5624 5625 5626 5627 5627 5628 5629 5628 5629 5630 5629 5629 5629 5629 5630
5594 5598 5612 5618 5620 5622 5622 5620 5621 5622 5623 5623 5620 5618 5618 5616 5615 5615 5615 5614 5613 5612 5611 5612 5612 5612 5611 5614 5615 5616 5617 5617 5619 5620 5621 5621 5621 5622 5622 5622 5622 5623 5623 5625
5594 5602 5608 5612 5615 5617 5617 5616 5616 5616 5617 5616 5613 5611 5609 5608 5607 5606 5606 5605 5605 5603 5603 5603 5604 5605 5605 5607 5607 5607 5608 5610 5611 5612 5612 5613 5614 5615 5615 5615 5615 5617 5618 5619
5589 5597 5600 5605 5607 5608 5610 5610 5610 5609 5609 5609 5606 5604 5602 5600 5599 5599 5598 5597 5596 5595 5595 5596 5597 5597 5599 5599 5599 5599 5600 5602 5603 5604 5605 5605 5606 5607 5609 5610 5611 5612 5613 5614
5584 5591 5589 5595 5601 5603 5602 5602 5602 5601 5600 5601 5599 5597 5596 5593 5592 5591 5590 5589 5588 5588 5588 5588 5589 5589 5590 5591 5591 5591 5592 5593 5594 5595 5596 5597 5597 5599 5602 5603 5605 5607 5609 5609
5590 5592 5591 5595 5597 5598 5597 5596 5596 5595 5594 5593 5592 5590 5588 5586 5585 5584 5584 5583 5582 5582 5582 5582 5581 5582 5582 5583 5583 5583 5584 5585 5586 5587 5588 5588 5589 5591 5592 5594 5597 5599 5601 5603
5589 5588 5587 5589 5590 5591 5591 5591 5590 5589 5587 5586 5585 5583 5581 5579 5579 5578 5577 5577 5576 5576 5575 5575 5574 5575 5575 5575 5575 5576 5576 5578 5579 5580 5580 5581 5582 5583 5585 5586 5588 5590 5593 5595
5586 5585 5583 5585 5585 5584 5584 5583 5581 5580 5580 5579 5578 5577 5575 5573 5572 5572 5572 5571 5570 5569 5568 5568 5568 5568 5568 5568 5568 5568 5569 5569 5571 5572 5573 5574 5575 5576 5577 5579 5581 5582 5583 5586
5581 5580 5580 5579 5578 5577 5577 5576 5574 5574 5573 5573 5572 5571 5570 5568 5567 5566 5566 5565 5563 5562 5562 5562 5562 5562 5562 5561 5561 5561 5562 5564 5564 5565 5565 5567 5568 5569 5570 5571 5572 5573 5575 5577
5573 5572 5572 5571 5571 5571 5570 5570 5570 5569 5568 5567 5566 5565 5564 5562 5560 5559 5559 5558 5557 5557 5556 5556 5556 5556 5556 5555 5554 5554 5554 5556 5557 5558 5558 5559 5560 5561 5562 5563 5564 5565 5567 5569
5571 5570 5569 5567 5566 5565 5565 5565 5564 5564 5562 5562 5561 5559 5556 5555 5553 5552 5552 5552 5551 5551 5551 5551 5551 5551 5550 5549 5548 5548 5548 5549 5550 5551 5551 5551 5552 5553 5554 5555 5557 5558 5559 5561
5566 5566 5564 5563 5562 5560 5559 5559 5558 5558 5557 5555 5553 5551 5550 5549 5548 5547 5546 5546 5545 5545 5546 5546 5546 5545 5544 5544 5544 5543 5543 5543 5544 5545 5545 5545 5545 5546 5547 5548 5549 5551 5552 5554
5560 5560 5559 5558 5557 5555 5554 5553 5553 5552 5551 5549 5547 5545 5544 5543 5542 5541 5540 5539 5538 5539 5540 5541 5540 5540 5540 5539 5540 5539 5538 5538 5539 5539 5538 5538 5538 5538 5540 5541 5542 5544 5545 5547
5553 5552 5552 5551 5550 5550 5548 5547 5546 5545 5544 5542 5540 5539 5537 5537 5536 5535 5534 5533 5534 5535 5535 5536 5535 5535 5535 5535 5536 5534 5534 5533 5533 5533 5533 5532 5532 5532 5533 5534 5535 5537 5538 5539
5546 5545 5546 5545 5543 5542 5541 5540 5539 5538 5537 5535 5534 5533 5531 5530 5530 5529 5528 5528 5529 5530 5529 5529 5529 5531 5531 5531 5530 5529 5529 5528 5528 5527 5527 5527 5527 5527 5528 5528 5529 5531 5531 5532
5539 5539 5538 5537 5536 5534 5534 5532 5531 5531 5530 5528 5527 5526 5525 5524 5523 5523 5523 5523 5523 5524 5524 5524 5525 5526 5526 5525 5524 5523 5523 5523 5523 5522 5522 5522 5522 5523 5523 5524 5525 5525 5526 5526
5532 5532 5531 5530 5528 5526 5525 5525 5524 5523 5523 5521 5521 5520 5519 5518 5517 5517 5517 5518 5518 5518 5519 5519 5520 5520 5520 5518 5517 5517 5517 5518 5518 5518 5518 5518 5518 5518 5519 5519 5519 5520 5520 5520
5526 5525 5523 5521 5520 5519 5518 5517 5517 5516 5515 5514 5514 5513 5513 5513 5512 5512 5512 5513 5513 5514 5513 5514 5514 5514 5513 5512 5511 5511 5512 5512 5513 5514 5514 5513 5513 5514 5514 5514 5514 5513 5513 5514
5519 5518 5517 5515 5514 5513 5511 5510 5509 5508 5507 5507 5507 5506 5506 5507 5507 5507 5507 5507 5507 5508 5507 5507 5507 5507 5507 5506 5506 5506 5506 5508 5508 5509 5509 5509 5509 5509 5508 5508 5508 5507 5507 5507
5513 5511 5510 5508 5507 5506 5505 5504 5503 5501 5501 5501 5500 5500 5500 5501 5501 5501 5501 5500 5500 5500 5500 5500 5500 5500 5501 5501 5501 5501 5502 5502 5503 5504 5504 5504 5503 5503 5502 5502 5501 5501 5501 5500